Regional Weather Roundup
Issued by NWS

Home | Current Version | Previous Version | Text Only | Print | Product List | Glossary Off
Versions: 1 2 3 4 5 6 7 8 9 10 11 12 13 14 15 16 17 18 19 20 21 22 23 24 25 26 27 28 29 30 31 32 33 34 35 36 37 38 39 40 41 42 43 44 45 46 47 48 49 50

000
ASUS43 KMKX 190659
RWRWI

WISCONSIN REGIONAL WEATHER ROUNDUP
NATIONAL WEATHER SERVICE MILWAUKEE/SULLIVAN WI
100 AM CST FRI JAN 19 2018

NOTE: "FAIR" INDICATES FEW OR NO CLOUDS BELOW 12,000 FEET WITH NO
SIGNIFICANT WEATHER AND/OR OBSTRUCTIONS TO VISIBILITY.

WIZ001-002-006>008-014>016-023>028-190800-
NORTHWEST WISCONSIN

CITY           SKY/WX    TMP DP  RH WIND       PRES   REMARKS
SUPERIOR ARPT  FAIR      21  20  96 SW5       29.66F WCI  14
ASHLAND        FAIR      28  22  78 S6        29.67F WCI  22
HAYWARD        FAIR      21  18  88 SW5       29.69F WCI  15
SIREN          FAIR      26  24  92 S3        29.70S
CUMBERLAND     FAIR      23  21  93 S5        29.71S WCI  17
RICE LAKE      FAIR      22  21  96 SE6       29.73F WCI  14
CHETEK         NOT AVBL
LADYSMITH      FAIR      26  23  88 S7        29.73F WCI  18
EAU CLAIRE     NOT AVBL
MENOMONIE      FAIR      25  21  85 SE5       29.76F WCI  20
NEW RICHMOND   FAIR      25  24  96 S7        29.73F WCI  17
OSCEOLA        FAIR      28  26  93 S7        29.75S WCI  20
$$

WIZ003>005-009-010-017-018-190800-
NORTH CENTRAL WISCONSIN

CITY           SKY/WX    TMP DP  RH WIND       PRES   REMARKS
MANITOWISH WTR FAIR      21  21 100 CALM      29.67F
ARBOR VITAE    FAIR      25  22  88 S5        29.68F WCI  19
WOODRUFF       FAIR      25  22  88 S5        29.68F WCI  19
RHINELANDER    FAIR      26  22  84 SW8       29.70F WCI  18
EAGLE RIVER    FAIR      20  19  98 SW5       29.67F WCI  13
LAND O LAKES   FAIR      20  19  96 CALM      29.69F
PHILLIPS       FAIR      24  22  95 S5        29.69F WCI  18
TOMAHAWK       FAIR      21  19  90 CALM      29.72F
MEDFORD        FAIR      23  19  85 SW7       29.74S WCI  15
MERRILL        FAIR      19  17  93 CALM      29.74F
$$

WIZ029-030-035-036-043>047-190800-
CENTRAL WISCONSIN

CITY           SKY/WX    TMP DP  RH WIND       PRES   REMARKS
WAUSAU         FAIR      25  20  81 CALM      29.73F
MOSINEE        FAIR      25  21  86 SW6       29.77S WCI  18
MARSHFIELD     FAIR      25  19  78 SW7       29.74F WCI  17
STEVENS POINT  FAIR      24  19  79 SW5       29.79S WCI  19
WAUPACA        FAIR      25  18  76 S3        29.80F
WAUTOMA        FAIR      22  17  81 CALM      29.81F
WISC RAPIDS    FAIR      24  16  71 SW8       29.78F WCI  15
CAMP DOUGLAS   FAIR      28  20  72 SW6       29.79F WCI  21
$$

WIZ011>013-019>022-031-037>040-048>050-190800-
NORTHEAST WISCONSIN

CITY           SKY/WX    TMP DP  RH WIND       PRES   REMARKS
ANTIGO         FAIR      22  19  89 W6        29.74S WCI  14
SHAWANO        FAIR      26  20  77 CALM      29.77F
OCONTO         FAIR      26  19  74 SW6       29.79S WCI  19
STURGEON BAY   FAIR      27  20  75 SW13      29.79S WCI  16
GREEN BAY      FAIR      22  16  78 S5        29.80F WCI  16
MANITOWOC      FAIR      29  20  69 SW8       29.81F WCI  21
APPLETON       FAIR      23  16  74 SW8       29.78F WCI  14
CLINTONVILLE   FAIR      19  16  86 S3        29.79F
OSHKOSH        FAIR      22  16  78 S8        29.81F WCI  12
$$

WIZ032>034-041-042-053>061-190800-
SOUTHWEST WISCONSIN

CITY           SKY/WX    TMP DP  RH WIND       PRES   REMARKS
LA CROSSE      FAIR      28  20  71 S9        29.81F WCI  19
SPARTA         FAIR      28  21  76 S5        29.82F WCI  23
VIROQUA        FAIR      26  22  84 SW10      29.80F WCI  16
BOSCOBEL       FAIR      23  17  78 CALM      29.86F
PRAIRIE DU CHI FAIR      29  19  64 S5        29.87F WCI  24
PLATTEVILLE    FAIR      22  19  88 SW7       29.88F WCI  14
$$

WIZ056-057-062-063-064-067-068-190800-
SOUTH CENTRAL WISCONSIN

CITY           SKY/WX    TMP DP  RH WIND       PRES   REMARKS
REEDSBURG      FAIR      28  20  71 SW9       29.83F WCI  19
BARABOO/DELLS  FAIR      27  19  70 W7        29.82S WCI  20
LONE ROCK      FAIR      18  14  84 CALM      29.86F
MINERAL POINT  FAIR      27  23  86 SW9       29.85F WCI  17
MADISON        FAIR      27  19  72 SW6       29.85F WCI  20
MIDDLETON      FAIR      29  21  72 SW13G21   29.84F WCI  19
WATERTOWN      NOT AVBL
MONROE         FAIR      28  21  74 SW18G24   29.86F WCI  16
JANESVILLE     FAIR      28  21  74 SW10      29.89F WCI  19
$$

WIZ051-052-058>065-066-070>072-190800-
SOUTHEAST WISCONSIN

CITY           SKY/WX    TMP DP  RH WIND       PRES   REMARKS
MILWAUKEE      FAIR      31  20  63 SW13G20   29.86S WCI  21
WAUKESHA       FAIR      28  19  69 SW13      29.86F WCI  18
MILWAUKEE/TIMM FAIR      30  19  64 SW18      29.85F WCI  18
RACINE         FAIR      30  20  66 SW16G24   29.87F WCI  19
BURLINGTON     FAIR      28  19  67 SW13      29.88F WCI  18
KENOSHA        FAIR      30  19  63 SW17      29.87F WCI  18
FOND DU LAC    FAIR      25  16  68 SW7       29.83R WCI  17
SHEBOYGAN      FAIR      28  20  71 W10       29.82R WCI  19
WEST BEND      FAIR      28  19  69 W13G18    29.83S WCI  18
JUNEAU         FAIR      20  16  83 S8        29.85S WCI  11
$$

LSZ147-162-190800-
LAKE SUPERIOR

STATION/POSITION TIME  TEMP    WIND        PRES    WAVE
                       AIR SEA DIR/SP/G            HT/PER
                 (UTC) (F)     (DEG/KT/KT) (MB)    (FT/S)
DEVILS ISLAND    0600   32     200/  5/  6 1005.6F
SAXON HARBOR     0640   27     170/  5/  7 1005.1F
$$

LMZ867-665-643>646-190800-
LAKE MICHIGAN

STATION/POSITION TIME  TEMP    WIND        PRES    WAVE
                       AIR SEA DIR/SP/G            HT/PER
                 (UTC) (F)     (DEG/KT/KT) (MB)    (FT/S)
NORTHPORT PIER   0640   27     240/  4/ 23 1008.1S
KEWAUNEE LAKESHO 0630   27     260/  8/ 11 1008.6F
SHEBOYGAN LAKESH 0600   30     240/ 12/ 14 1010.4F
PORT WASHINGTON  0630   29     260/ 10/ 16 1011.2S
MILWAUKEE LAKESH 0630   31     240/ 12/ 16   N/A
KENOSHA   LAKESH 0600   32     240/ 16/ 25 1012.2
$$

TC  - TEMPERATURE IN CELSIUS
VSB - VISIBILITY IN STATUTE MILES
WCI - WIND CHILL INDEX
HX  - HEAT INDEX





USA.gov is the U.S. government's official web portal to all federal, state and local government web resources and services.